Satellite-Ground Cal/Val Region Overpasses Predictions

Prediction of Satellite NPP Overpassing Cal/Val Region: PacNW

Region Location: (Latitude: 10.00, Longitude: 139.50) to (Latitude: 22.70, Longitude: 165.60).

Table of predicted overpasses for the next 14.0 days since TLE Epoch: 5/8/2020
Interval Starting Time Starting Location Ending Time Ending Location
1 05/09/2020 03:10:43 ( 10.03, 151.96) 05/09/2020 03:14:18 ( 22.65, 148.95)
2 05/09/2020 15:42:36 ( 22.68, 149.20) 05/09/2020 15:46:12 ( 10.00, 146.18)
3 05/10/2020 02:51:41 ( 10.00, 156.72) 05/10/2020 02:55:17 ( 22.68, 153.70)
4 05/10/2020 15:23:34 ( 22.65, 153.95) 05/10/2020 15:27:09 ( 10.03, 150.94)
5 05/11/2020 02:32:39 ( 10.03, 161.47) 05/11/2020 02:36:14 ( 22.65, 158.47)
6 05/11/2020 15:04:32 ( 22.68, 158.71) 05/11/2020 15:08:08 ( 10.00, 155.70)
7 05/12/2020 02:14:25 ( 12.82, 165.59) 05/12/2020 02:17:13 ( 22.68, 163.22)
8 05/12/2020 03:55:07 ( 10.01, 140.86) 05/12/2020 03:56:46 ( 15.83, 139.51)
9 05/12/2020 14:45:30 ( 22.65, 163.47) 05/12/2020 14:49:05 ( 10.03, 160.46)
10 05/13/2020 03:36:05 ( 10.04, 145.61) 05/13/2020 03:39:40 ( 22.66, 142.61)
11 05/13/2020 14:29:36 ( 11.64, 165.59) 05/13/2020 14:30:03 ( 10.06, 165.23)
12 05/13/2020 16:07:58 ( 22.67, 142.86) 05/13/2020 16:11:33 ( 10.05, 139.85)
13 05/14/2020 03:17:03 ( 10.01, 150.38) 05/14/2020 03:20:39 ( 22.70, 147.36)
14 05/14/2020 15:48:55 ( 22.70, 147.62) 05/14/2020 15:52:31 ( 10.02, 144.60)
15 05/15/2020 02:58:01 ( 10.05, 155.13) 05/15/2020 03:01:36 ( 22.67, 152.13)
16 05/15/2020 15:29:54 ( 22.67, 152.37) 05/15/2020 15:33:29 ( 10.05, 149.37)
17 05/16/2020 02:38:59 ( 10.02, 159.90) 05/16/2020 02:42:34 ( 22.64, 156.89)
18 05/16/2020 15:10:52 ( 22.69, 157.14) 05/16/2020 15:14:27 ( 10.02, 154.12)
19 05/17/2020 02:19:57 ( 10.05, 164.65) 05/17/2020 02:23:32 ( 22.68, 161.64)
20 05/17/2020 14:51:50 ( 22.66, 161.89) 05/17/2020 14:55:25 ( 10.04, 158.88)
21 05/18/2020 03:42:25 ( 10.03, 144.04) 05/18/2020 03:46:00 ( 22.66, 141.03)
22 05/18/2020 14:34:02 ( 18.35, 165.59) 05/18/2020 14:36:24 ( 10.01, 163.64)
23 05/18/2020 16:14:18 ( 22.68, 141.28) 05/18/2020 16:16:22 ( 15.41, 139.51)
24 05/19/2020 03:23:22 ( 10.01, 148.80) 05/19/2020 03:26:58 ( 22.69, 145.78)
25 05/19/2020 15:55:16 ( 22.65, 146.03) 05/19/2020 15:58:51 ( 10.03, 143.03)
26 05/20/2020 03:04:21 ( 10.04, 153.55) 05/20/2020 03:07:56 ( 22.66, 150.55)
27 05/20/2020 15:36:14 ( 22.68, 150.79) 05/20/2020 15:39:49 ( 10.06, 147.79)
28 05/21/2020 02:45:18 ( 10.02, 158.32) 05/21/2020 02:48:54 ( 22.70, 155.30)
29 05/21/2020 15:17:12 ( 22.64, 155.54) 05/21/2020 15:20:47 ( 10.02, 152.54)
30 05/22/2020 02:26:17 ( 10.05, 163.07) 05/22/2020 02:29:52 ( 22.67, 160.06)


NCC Satellite Cal/Val Overpasses Prediction Service
